Location: Cisewo
(53.3833°N, 14.9000°E)
Time: 12:34:20
(UTC+00:00)

Meteor 2-16 Rocket - Pass Details

Date: 18 April 2021
Orbit: 942 x 955 km, 82.6° (Epoch: 16 May)

Event Time Altitude Azimuth Distance (km) Brightness Sun altitude
Rises 20:16:43 0° 348° (NNW) 3,645 8.6 -16.8°
Reaches altitude 10° 20:19:13 10° 348° (NNW) 2,696 7.7 -17.0°
Maximum altitude 20:25:24 85° 260° (W) 967 4.5 -17.6°
Enters shadow 20:29:26 23° 174° (S) 1,907 5.6 -18.0°
